Munising, MI

3:04 PM EDT on October 01, 2016 (GMT -0400)
Munising

Weather History for KP53 - March, 2013

Change the Weather History Date:

Sunday, March 17, 2013

  Actual Average (KISQ) Record (KISQ)
Temperature  
Mean Temperature 20 °F -  
Max Temperature 26 °F 36 °F 51 °F (2003)
Min Temperature 15 °F 15 °F -3 °F (1993)
Degree Days  
Heating Degree Days 45    
Moisture  
Dew Point 5 °F    
Average Humidity 57    
Maximum Humidity 68    
Minimum Humidity 43    
Precipitation  
Precipitation 0.00 in - - ()
Sea Level Pressure  
Sea Level Pressure 30.25 in    
Wind  
Wind Speed 12 mph (NNW)    
Max Wind Speed 21 mph    
Max Gust Speed 30 mph    
Averages and records for this station are not official NWS values.
T = Trace of Precipitation, MM = Missing Value Source: NWS Daily Summary

Daily Weather History Graph

Daily Weather History Graph

Search for Another Location

Airport or City:

Trip Planner

Search our weather history database for the weather conditions in past years. The results will help you decide how hot, cold, wet, or windy it might be!

Date:

Astronomy

Mar. 17, 2013 Rise Set
Actual Time 7:54 AM EDT 7:55 PM EDT
Civil Twilight 7:25 AM EDT 8:25 PM EDT
Nautical Twilight 6:49 AM EDT 9:00 PM EDT
Astronomical Twilight 6:13 AM EDT 9:36 PM EDT
Moon 10:48 AM EDT (3/17) 1:21 AM EDT (3/17)
Length of Visible Light 13h 00m
Length of Day
12h 00m
Waxing Crescent, 31% of the Moon is Illuminated
Mar 17
Waxing Crescent
Mar 19
First Quarter
Mar 27
Full
Apr 3
Last Quarter
Apr 10
New

Hourly Weather History & Observations

Time (EDT) Temp. Windchill Dew Point Humidity Pressure Visibility Wind Dir Wind Speed Gust Speed Precip Events Conditions
12:56 AM 19.0 °F 3.2 °F 7.0 °F 59% 30.12 in - NNW 19.6 mph 29.9 mph N/A   Unknown
1:56 AM 17.1 °F 2.5 °F 8.1 °F 68% 30.15 in - North 15.0 mph - N/A   Unknown
2:56 AM 16.0 °F -1.3 °F 6.1 °F 65% 30.19 in - North 20.7 mph 27.6 mph N/A   Unknown
3:56 AM 16.0 °F 2.9 °F 3.0 °F 57% 30.22 in - NNW 11.5 mph 25.3 mph N/A   Unknown
4:56 AM 15.1 °F -0.6 °F 3.0 °F 59% 30.24 in - NNW 16.1 mph - N/A   Unknown
5:56 AM 15.1 °F 1.8 °F 3.0 °F 59% 30.24 in - North 11.5 mph - N/A   Unknown
6:56 AM 15.1 °F 2.5 °F 5.0 °F 64% 30.27 in - North 10.4 mph - N/A   Unknown
7:56 AM 15.1 °F 3.3 °F 5.0 °F 64% 30.28 in - North 9.2 mph - N/A   Unknown
8:56 AM 16.0 °F 3.6 °F 3.0 °F 57% 30.29 in - North 10.4 mph - N/A   Unknown
9:56 AM 17.1 °F 5.8 °F 3.9 °F 56% 30.30 in - NNW 9.2 mph - N/A   Unknown
10:56 AM 18.0 °F 11.1 °F 5.0 °F 57% 30.31 in - North 4.6 mph - N/A   Unknown
11:56 AM 19.0 °F - 6.1 °F 57% 30.33 in - Calm Calm - N/A   Unknown
12:56 PM 19.9 °F 14.9 °F 6.1 °F 55% 30.33 in - NW 3.5 mph - N/A   Unknown
1:56 PM 21.9 °F 14.5 °F 7.0 °F 53% 30.32 in - NE 5.8 mph - N/A   Unknown
2:56 PM 23.0 °F 18.4 °F 7.0 °F 50% 30.30 in - Variable 3.5 mph - N/A   Unknown
3:56 PM 24.1 °F 13.7 °F 6.1 °F 46% 30.27 in - SSE 10.4 mph - N/A   Unknown
4:56 PM 25.0 °F 19.3 °F 6.1 °F 45% 30.26 in - SE 4.6 mph - N/A   Unknown
5:56 PM 25.0 °F 16.3 °F 5.0 °F 43% 30.24 in - South 8.1 mph - N/A   Unknown
6:56 PM 25.0 °F 13.6 °F 5.0 °F 43% 30.23 in - South 12.7 mph - N/A   Unknown
7:56 PM 21.9 °F 11.7 °F 6.1 °F 51% 30.23 in - SE 9.2 mph 17.3 mph N/A   Unknown
8:56 PM 19.0 °F 10.0 °F 6.1 °F 57% 30.23 in - SSE 6.9 mph - N/A   Unknown
9:56 PM 17.1 °F 8.7 °F 6.1 °F 62% 30.23 in - South 5.8 mph - N/A   Unknown
10:56 PM 15.1 °F 6.4 °F 6.1 °F 68% 30.21 in - South 5.8 mph - N/A   Unknown
11:56 PM 15.1 °F 7.7 °F 3.9 °F 61% 30.19 in - South 4.6 mph - N/A   Unknown